| time (UTC) | temp F | wind direction | speed MPH | gust MPH | rain 1hr in | rain 24hr in | rain mn in | humidity % | barometer mb |
| 20260905154529 | 80 | 90 | 4.0 | 0.0 | 0.00 | 0.00 | 0.00 | 40 | 997.5 |
| 20260905153036 | 79 | 119 | 4.0 | 0.0 | 0.00 | 0.00 | 0.00 | 43 | 997.6 |
| 20260905151526 | 79 | 96 | 3.0 | 0.0 | 0.00 | 0.00 | 0.00 | 44 | 997.6 |
| 20260905150023 | 76 | 133 | 4.0 | 0.0 | 0.00 | 0.00 | 0.00 | 48 | 997.9 |
| 20260905144532 | 74 | 63 | 3.0 | 0.0 | 0.00 | 0.00 | 0.00 | 54 | 997.6 |
| 20260905143025 | 77 | 139 | 0.0 | 0.0 | 0.00 | 0.00 | 0.00 | 43 | 997.8 |
| 20260905141519 | 76 | 154 | 0.0 | 0.0 | 0.00 | 0.00 | 0.00 | 46 | 997.8 |
| 20260905140014 | 73 | 175 | 0.0 | 0.0 | 0.00 | 0.00 | 0.00 | 53 | 997.1 |
| 20260905134512 | 72 | 175 | 0.0 | 0.0 | 0.00 | 0.00 | 0.00 | 51 | 997.6 |
| 20260905133011 | 71 | 175 | 0.0 | 0.0 | 0.00 | 0.00 | 0.00 | 50 | 997.7 |
| 20260905131523 | 69 | 176 | 1.0 | 0.0 | 0.00 | 0.00 | 0.00 | 49 | 998.0 |
| 20260905130010 | 67 | 235 | 2.0 | 0.0 | 0.00 | 0.00 | 0.00 | 48 | 998.1 |
| 20260905124510 | 67 | 217 | 1.0 | 0.0 | 0.00 | 0.00 | 0.00 | 49 | 997.7 |
| 20260905123009 | 67 | 252 | 1.0 | 0.0 | 0.00 | 0.00 | 0.00 | 48 | 997.6 |
| 20260905121510 | 67 | 221 | 1.0 | 0.0 | 0.00 | 0.00 | 0.00 | 48 | 997.9 |
| 20260905120007 | 66 | 264 | 2.0 | 0.0 | 0.00 | 0.00 | 0.00 | 50 | 997.2 |
| 20260905114507 | 65 | 247 | 1.0 | 0.0 | 0.00 | 0.00 | 0.00 | 52 | 997.5 |
| 20260905113006 | 64 | 277 | 1.0 | 0.0 | 0.00 | 0.00 | 0.00 | 56 | 997.2 |
| 20260905111504 | 65 | 302 | 1.0 | 0.0 | 0.00 | 0.00 | 0.00 | 55 | 997.2 |
| 20260905110101 | 66 | 244 | 0.0 | 0.0 | 0.00 | 0.00 | 0.00 | 52 | 996.1 |
| 20260905104556 | 67 | 253 | 0.0 | 0.0 | 0.00 | 0.00 | 0.00 | 50 | 996.0 |
| 20260905103056 | 68 | 286 | 1.0 | 0.0 | 0.00 | 0.00 | 0.00 | 49 | 995.8 |
| 20260905101554 | 68 | 179 | 0.0 | 0.0 | 0.00 | 0.00 | 0.00 | 49 | 995.4 |
| 20260905094549 | 71 | 219 | 1.0 | 0.0 | 0.00 | 0.00 | 0.00 | 44 | 994.8 |
| 20260905093055 | 70 | 237 | 3.0 | 0.0 | 0.00 | 0.00 | 0.00 | 44 | 994.5 |
| 20260905091558 | 70 | 163 | 1.0 | 0.0 | 0.00 | 0.00 | 0.00 | 45 | 994.7 |
| 20260905090045 | 70 | 207 | 2.0 | 0.0 | 0.00 | 0.00 | 0.00 | 44 | 994.3 |
| 20260905084551 | 71 | 178 | 3.0 | 0.0 | 0.00 | 0.00 | 0.00 | 43 | 994.3 |
| 20260905083044 | 71 | 202 | 3.0 | 0.0 | 0.00 | 0.00 | 0.00 | 43 | 994.6 |
| 20260905081543 | 71 | 253 | 3.0 | 0.0 | 0.00 | 0.00 | 0.00 | 43 | 994.6 |
| 20260905080050 | 72 | 185 | 2.0 | 0.0 | 0.00 | 0.00 | 0.00 | 43 | 994.6 |
| 20260905074543 | 72 | 204 | 3.0 | 0.0 | 0.00 | 0.00 | 0.00 | 43 | 994.6 |
| 20260905073042 | 72 | 189 | 2.0 | 0.0 | 0.00 | 0.00 | 0.00 | 43 | 994.6 |
| 20260905071541 | 71 | 152 | 2.0 | 0.0 | 0.00 | 0.00 | 0.00 | 44 | 994.6 |
| 20260905070040 | 71 | 148 | 3.0 | 0.0 | 0.00 | 0.00 | 0.00 | 46 | 995.6 |
| 20260905064545 | 71 | 144 | 4.0 | 0.0 | 0.00 | 0.00 | 0.00 | 47 | 995.6 |
| 20260905063038 | 72 | 179 | 2.0 | 0.0 | 0.00 | 0.00 | 0.00 | 45 | 994.9 |
| 20260905061540 | 72 | 205 | 2.0 | 0.0 | 0.00 | 0.00 | 0.00 | 44 | 994.8 |
| 20260905060037 | 72 | 224 | 1.0 | 0.0 | 0.00 | 0.00 | 0.00 | 44 | 995.5 |
| 20260905054532 | 73 | 237 | 2.0 | 0.0 | 0.00 | 0.00 | 0.00 | 44 | 995.4 |
| 20260905053035 | 73 | 215 | 2.0 | 0.0 | 0.00 | 0.00 | 0.00 | 43 | 995.1 |
| 20260905051531 | 73 | 256 | 2.0 | 0.0 | 0.00 | 0.00 | 0.00 | 43 | 995.1 |
| 20260905050031 | 74 | 218 | 1.0 | 0.0 | 0.00 | 0.00 | 0.00 | 43 | 995.4 |
| 20260905044529 | 74 | 252 | 2.0 | 0.0 | 0.00 | 0.00 | 0.00 | 42 | 995.1 |
| 20260905043030 | 75 | 246 | 2.0 | 0.0 | 0.00 | 0.00 | 0.00 | 44 | 995.0 |
| 20260905041530 | 76 | 219 | 2.0 | 0.0 | 0.00 | 0.00 | 0.00 | 43 | 994.9 |
| 20260905040029 | 77 | 210 | 0.0 | 0.0 | 0.00 | 0.00 | 0.00 | 41 | 995.6 |
| 20260905034528 | 78 | 49 | 1.0 | 0.0 | 0.00 | 0.00 | 0.00 | 40 | 995.3 |
| 20260905033034 | 79 | 219 | 1.0 | 0.0 | 0.00 | 0.00 | 0.00 | 38 | 995.3 |
| 20260905031531 | 79 | 162 | 1.0 | 0.0 | 0.00 | 0.00 | 0.00 | 38 | 995.1 |
| 20260905030035 | 80 | 158 | 1.0 | 0.0 | 0.00 | 0.00 | 0.00 | 37 | 995.6 |
| 20260905024532 | 81 | 116 | 3.0 | 0.0 | 0.00 | 0.00 | 0.00 | 36 | 995.1 |
| 20260905023027 | 82 | 90 | 2.0 | 0.0 | 0.00 | 0.00 | 0.00 | 34 | 995.2 |
| 20260905021528 | 83 | 133 | 4.0 | 0.0 | 0.00 | 0.00 | 0.00 | 32 | 994.3 |
| 20260905020047 | 84 | 43 | 5.0 | 0.0 | 0.00 | 0.00 | 0.00 | 31 | 994.8 |
| 20260905014526 | 84 | 63 | 5.0 | 0.0 | 0.00 | 0.00 | 0.00 | 31 | 994.9 |
| 20260905013032 | 85 | 35 | 4.0 | 0.0 | 0.00 | 0.00 | 0.00 | 31 | 994.9 |
| 20260905011524 | 85 | 40 | 4.0 | 0.0 | 0.00 | 0.00 | 0.00 | 31 | 994.6 |
| 20260905010023 | 86 | 51 | 3.0 | 0.0 | 0.00 | 0.00 | 0.00 | 31 | 995.9 |
| 20260905004523 | 87 | 55 | 4.0 | 0.0 | 0.00 | 0.00 | 0.00 | 30 | 996.0 |
| 20260905003023 | 88 | 85 | 5.0 | 0.0 | 0.00 | 0.00 | 0.00 | 29 | 995.6 |
| 20260905001523 | 88 | 44 | 4.0 | 0.0 | 0.00 | 0.00 | 0.00 | 29 | 995.2 |
| 20260905000022 | 88 | 98 | 7.0 | 0.0 | 0.00 | 0.00 | 0.00 | 28 | 994.7 |
| 20260904234521 | 90 | 75 | 5.0 | 0.0 | 0.00 | 0.00 | 0.00 | 28 | 994.3 |
| 20260904233021 | 91 | 76 | 4.0 | 0.0 | 0.00 | 0.00 | 0.00 | 27 | 994.1 |
| 20260904231525 | 92 | 121 | 5.0 | 0.0 | 0.00 | 0.00 | 0.00 | 26 | 993.9 |
| 20260904230020 | 93 | 46 | 4.0 | 0.0 | 0.00 | 0.00 | 0.00 | 25 | 993.6 |
| 20260904224522 | 94 | 10 | 4.0 | 0.0 | 0.00 | 0.00 | 0.00 | 23 | 993.8 |
| 20260904223024 | 93 | 28 | 3.0 | 0.0 | 0.00 | 0.00 | 0.00 | 23 | 993.9 |
| 20260904221519 | 96 | 15 | 5.0 | 0.0 | 0.00 | 0.00 | 0.00 | 22 | 993.4 |
| 20260904220014 | 94 | 34 | 2.0 | 0.0 | 0.00 | 0.00 | 0.00 | 22 | 993.6 |
| 20260904214515 | 93 | 75 | 4.0 | 0.0 | 0.00 | 0.00 | 0.00 | 22 | 993.7 |
| 20260904213025 | 92 | 85 | 3.0 | 0.0 | 0.00 | 0.00 | 0.00 | 24 | 994.2 |
| 20260904211513 | 92 | 108 | 3.0 | 0.0 | 0.00 | 0.00 | 0.00 | 22 | 994.1 |
| 20260904210024 | 95 | 88 | 2.0 | 0.0 | 0.00 | 0.00 | 0.00 | 22 | 993.5 |
| 20260904204512 | 93 | 144 | 5.0 | 0.0 | 0.00 | 0.00 | 0.00 | 22 | 994.2 |
| 20260904203011 | 92 | 38 | 3.0 | 0.0 | 0.00 | 0.00 | 0.00 | 22 | 994.4 |
| 20260904201511 | 92 | 55 | 4.0 | 0.0 | 0.00 | 0.00 | 0.00 | 23 | 994.4 |
| 20260904200010 | 93 | 77 | 3.0 | 0.0 | 0.00 | 0.00 | 0.00 | 22 | 994.3 |
| 20260904194508 | 91 | 45 | 5.0 | 0.0 | 0.00 | 0.00 | 0.00 | 24 | 995.0 |
| 20260904193007 | 91 | 56 | 5.0 | 0.0 | 0.00 | 0.00 | 0.00 | 23 | 995.0 |
| 20260904191505 | 91 | 73 | 5.0 | 0.0 | 0.00 | 0.00 | 0.00 | 23 | 995.1 |
| 20260904190004 | 89 | 95 | 5.0 | 0.0 | 0.00 | 0.00 | 0.00 | 23 | 995.3 |
| 20260904184502 | 88 | 88 | 5.0 | 0.0 | 0.00 | 0.00 | 0.00 | 25 | 995.4 |
| 20260904183100 | 88 | 92 | 5.0 | 0.0 | 0.00 | 0.00 | 0.00 | 25 | 996.0 |
| 20260904181558 | 87 | 93 | 5.0 | 0.0 | 0.00 | 0.00 | 0.00 | 26 | 996.1 |
| 20260904180058 | 86 | 83 | 7.0 | 0.0 | 0.00 | 0.00 | 0.00 | 26 | 996.4 |
| 20260904174607 | 87 | 137 | 6.0 | 0.0 | 0.00 | 0.00 | 0.00 | 26 | 996.2 |
| 20260904173103 | 85 | 137 | 8.0 | 0.0 | 0.00 | 0.00 | 0.00 | 29 | 996.5 |
| 20260904171602 | 84 | 74 | 6.0 | 0.0 | 0.00 | 0.00 | 0.00 | 31 | 996.6 |
| 20260904170052 | 84 | 86 | 5.0 | 0.0 | 0.00 | 0.00 | 0.00 | 30 | 996.4 |
| 20260904164553 | 83 | 140 | 6.0 | 0.0 | 0.00 | 0.00 | 0.00 | 29 | 997.1 |
| 20260904163049 | 81 | 63 | 6.0 | 0.0 | 0.00 | 0.00 | 0.00 | 32 | 997.2 |
| 20260904161543 | 80 | 85 | 7.0 | 0.0 | 0.00 | 0.00 | 0.00 | 34 | 997.2 |
| 20260904160039 | 78 | 111 | 7.0 | 0.0 | 0.00 | 0.00 | 0.00 | 37 | 997.0 |